Houghton Lake, MI

5:00 AM EST on February 06, 2016 (GMT -0500)
Roscommon County

Weather History for KHTL - April, 2013

Change the Weather History Date:

Sunday, April 28, 2013

  Actual Average Record
Temperature  
Mean Temperature 54 °F 48 °F  
Max Temperature 71 °F 60 °F 83 °F (1986)
Min Temperature 37 °F 36 °F 16 °F (1947)
Degree Days  
Heating Degree Days 11 17  
Month to date heating degree days 759 642  
Since 1 July heating degree days 7288 7627  
Cooling Degree Days 0 0  
Month to date cooling degree days 0 0  
Year to date cooling degree days 0 0  
Growing Degree Days 4 (Base 50)    
Moisture  
Dew Point 42 °F    
Average Humidity 62    
Maximum Humidity 93    
Minimum Humidity 30    
Precipitation  
Precipitation 0.00 in 0.08 in 1.19 in (1981)
Month to date precipitation 5.55 2.32  
Year to date precipitation 12.07 6.88  
Snow  
Snow 0.00 in 0.10 in 1.50 in (1926)
Month to date snowfall 3.0 3.7  
Since 1 July snowfall 60.1 66.5  
Snow Depth 0.00 in    
Sea Level Pressure  
Sea Level Pressure 29.96 in    
Wind  
Wind Speed 6 mph (ESE)    
Max Wind Speed 17 mph    
Max Gust Speed 24 mph    
Visibility 10 miles    
Events      
T = Trace of Precipitation, MM = Missing Value Source: NWS Daily Summary

Daily Weather History Graph

Daily Weather History Graph

Search for Another Location

Airport or City:

Trip Planner

Search our weather history database for the weather conditions in past years. The results will help you decide how hot, cold, wet, or windy it might be!

Date:

Astronomy

Apr. 28, 2013 Rise Set
Actual Time 6:33 AM EDT 8:39 PM EDT
Civil Twilight 6:01 AM EDT 9:11 PM EDT
Nautical Twilight 5:23 AM EDT 9:50 PM EDT
Astronomical Twilight 4:40 AM EDT 10:33 PM EDT
Moon No Moon Rise 8:45 AM EDT (4/28)
Length of Visible Light 15h 09m
Length of Day
14h 05m
Waning Gibbous, 89% of the Moon is Illuminated
Apr 28
Waning Gibbous
May 2
Last Quarter
May 9
New
May 18
First Quarter
May 25
Full

Hourly Weather History & Observations

Time (EDT) Temp. Windchill Dew Point Humidity Pressure Visibility Wind Dir Wind Speed Gust Speed Precip Events Conditions
12:53 AM 48.0 °F - 37.0 °F 66% 30.10 in 10.0 mi ESE 4.6 mph - N/A   Clear
1:53 AM 45.0 °F 42.6 °F 37.0 °F 74% 30.09 in 10.0 mi SSE 4.6 mph - N/A   Clear
2:53 AM 48.9 °F - 34.0 °F 56% 30.07 in 10.0 mi SSE 4.6 mph - N/A   Clear
3:53 AM 43.0 °F - 39.0 °F 86% 30.06 in 10.0 mi Calm Calm - N/A   Clear
4:53 AM 41.0 °F - 39.9 °F 96% 30.04 in 8.0 mi Calm Calm - N/A   Clear
5:53 AM 39.0 °F 36.8 °F 37.9 °F 96% 30.04 in 7.0 mi ENE 3.5 mph - N/A   Clear
6:53 AM 41.0 °F 39.0 °F 39.9 °F 96% 30.04 in 10.0 mi ENE 3.5 mph - N/A   Overcast
7:53 AM 46.9 °F - 42.1 °F 83% 30.02 in 10.0 mi ENE 3.5 mph - N/A   Overcast
8:53 AM 52.0 °F - 39.9 °F 63% 30.01 in 10.0 mi East 3.5 mph - N/A   Overcast
9:53 AM 55.0 °F - 39.0 °F 55% 30.00 in 10.0 mi ENE 3.5 mph - N/A   Overcast
10:53 AM 59.0 °F - 39.0 °F 48% 29.98 in 10.0 mi NNE 4.6 mph - N/A   Overcast
11:53 AM 64.9 °F - 36.0 °F 34% 29.96 in 10.0 mi NE 5.8 mph - N/A   Overcast
12:53 PM 68.0 °F - 36.0 °F 31% 29.94 in 10.0 mi SSE 9.2 mph - N/A   Mostly Cloudy
1:53 PM 70.0 °F - 41.0 °F 35% 29.91 in 10.0 mi South 13.8 mph 18.4 mph N/A   Partly Cloudy
2:53 PM 69.1 °F - 42.1 °F 38% 29.89 in 10.0 mi SE 10.4 mph 23.0 mph N/A   Scattered Clouds
3:53 PM 66.0 °F - 44.1 °F 45% 29.89 in 10.0 mi SE 12.7 mph 20.7 mph N/A   Overcast
4:53 PM 64.9 °F - 45.0 °F 48% 29.89 in 10.0 mi South 6.9 mph - N/A   Overcast
5:53 PM 66.0 °F - 46.0 °F 48% 29.87 in 10.0 mi SE 15.0 mph - N/A   Scattered Clouds
6:53 PM 62.1 °F - 45.0 °F 53% 29.88 in 10.0 mi SE 10.4 mph - N/A   Mostly Cloudy
7:53 PM 59.0 °F - 46.0 °F 62% 29.87 in 10.0 mi ESE 11.5 mph - N/A   Overcast
8:53 PM 55.9 °F - 46.0 °F 69% 29.87 in 10.0 mi SE 6.9 mph - N/A   Scattered Clouds
9:53 PM 54.0 °F - 46.9 °F 77% 29.88 in 10.0 mi SE 3.5 mph - N/A   Clear
10:53 PM 52.0 °F - 46.9 °F 83% 29.88 in 10.0 mi SE 5.8 mph - N/A   Partly Cloudy
11:05 PM 51.8 °F - 46.4 °F 82% 29.86 in 10.0 mi ESE 5.8 mph - N/A   Mostly Cloudy
11:53 PM 52.0 °F - 48.0 °F 86% 29.87 in 10.0 mi ESE 3.5 mph - N/A   Overcast